Regional Weather Roundup
Issued by NWS

Home | Current Version | Previous Version | Text Only | Print | Product List | Glossary Off
Versions: 1 2 3 4 5 6 7 8 9 10 11 12 13 14 15 16 17 18 19 20 21 22 23 24 25 26 27 28 29 30 31 32 33 34 35 36 37 38 39 40 41 42 43 44 45 46 47 48 49 50

000
ASUS43 KLOT 191708
RWRIL

ILLINOIS REGIONAL WEATHER ROUNDUP
NATIONAL WEATHER SERVICE CHICAGO/ROMEOVILLE IL
1200 PM CDT SAT AUG 19 2017

NOTE: "FAIR" INDICATES FEW OR NO CLOUDS BELOW 12,000 FEET WITH NO
SIGNIFICANT WEATHER AND/OR OBSTRUCTIONS TO VISIBILITY.

* THESE STATIONS ARE NOT UNDER NWS QUALITY CONTROL. THEY ALSO MAY NOT
  REPORT WEATHER SUCH AS PRECIPITATION OR FOG.

ILZ001-002-007-009-015-016-024-191800-
NORTHWEST ILLINOIS

CITY           SKY/WX    TMP DP  RH WIND       PRES   REMARKS
MOLINE         SUNNY     78  60  53 SE6       29.98S
STERLING*      SUNNY     76  62  62 SW3       29.99S
SAVANNA*       SUNNY     76  63  64 SW6       29.99S
$$

ILZ003-004-008-010-011-017-018-191800-
NORTH CENTRAL ILLINOIS

CITY           SKY/WX    TMP DP  RH WIND       PRES   REMARKS
ROCKFORD       MOSUNNY   76  62  62 CALM      29.99S
FREEPORT*      SUNNY     74  59  59 CALM      30.01S
ROCHELLE*      SUNNY     75  60  59 NW5       29.99S
DE KALB*       SUNNY     75  61  61 CALM      29.99F
PERU*          SUNNY     76  60  58 E3        29.99S
$$

ILZ005-006-012>014-019>023-191800-
NORTHEAST ILLINOIS

CITY           SKY/WX    TMP DP  RH WIND       PRES   REMARKS
CHICAGO-OHARE  MOSUNNY   80  56  43 VRB6      29.96F HX  80
CHICAGO-MIDWAY MOSUNNY   80  59  48 NE7       29.96F HX  81
AURORA         SUNNY     77  61  57 VRB3      29.98F
LANSING*       SUNNY     78  57  47 N9        29.97S
JOLIET*        SUNNY     78  59  50 CALM      29.97S HX  80
WAUKEGAN       SUNNY     78  60  53 CALM      29.96F
DUPAGE AIRPORT SUNNY     77  60  55 VRB3      29.97S
KANKAKEE*      SUNNY     78  60  54 CALM      29.98R
WHEELING       SUNNY     78  60  53 E5        29.98S
MORRIS*        SUNNY     77  62  59 NE3       29.97S
ROMEOVILLE*    SUNNY     78  57  48 N5        29.97S
NORTHERLY ISL    N/A     73  62  68 NE8         N/A
$$

LMZ740>746-191800-
SOUTHERN LAKE MICHIGAN

STATION/POSITION SKY/WX   TEMP    WIND        PRES    VSBY  WAVE
                          AIR SEA DIR/SP/G                  HT/PER
                          (F)     (DEG/KT/KT) (MB)    (MI)  (FT/S)
SOUTHERN BUOY              69 72  310/  4/  6 1014.7S         1
WILMETTE HARBOR            70 73   60/  2/  4   N/A           1/ 4
HARRISON CRIB              71      40/  3/  3   N/A
CALUMET HARBOR             72      50/  6/  8 1014.6F
BURNS HARBOR               71     350/  5/  7 1015.6R
MICHIGAN CITY              73     330/  6/  7   N/A
MICHIGAN CITY 6N           71 75  360/  4/  6   N/A           2/ 4
ST. JOSEPH                 71 74   10/  4/  6 1015.0          2/ 4
$$

ILZ025>027-034>036-040-047-049-050-058-095>099-191800-
WEST-CENTRAL ILLINOIS

CITY           SKY/WX    TMP DP  RH WIND       PRES   REMARKS
QUINCY         SUNNY     81  67  62 CALM      29.95F HX  83
GALESBURG*     SUNNY     77  59  52 SE5       29.99S
MACOMB*        SUNNY     77  67  69 E5        30.00S
JACKSONVILLE*  SUNNY     81  67  62 E5        29.95F HX  84
PITTSFIELD*    SUNNY     82  70  65 CALM      29.97S HX  86
$$

ILZ028>032-037-038-041>044-048-051>054-059>061-191800-
CENTRAL ILLINOIS

CITY           SKY/WX    TMP DP  RH WIND       PRES   REMARKS
PONTIAC        SUNNY     78  61  55 N5        29.98S HX  80
BLOOMINGTON    SUNNY     79  64  60 NE8       29.99S HX  81
DECATUR        SUNNY     81  67  62 E5        29.97R HX  83
PEORIA         SUNNY     82  56  40 VRB5      29.97S HX  82
LACON*         SUNNY     78  60  53 E6        29.97S HX  80
LINCOLN*       SUNNY     82  68  62 E3        29.97S HX  85
SPRINGFIELD    MOSUNNY   85  71  63 E3        29.96S HX  90
TAYLORVILLE    SUNNY     81  70  70 CALM      29.96F HX  84
$$

ILZ033-039-045-046-055>057-062-063-191800-
EAST-CENTRAL ILLINOIS

CITY           SKY/WX    TMP DP  RH WIND       PRES   REMARKS
CHAMPAIGN      MOSUNNY   83  63  50 CALM      29.97R HX  84
RANTOUL*       PTSUNNY   82  64  55 NE3       29.97S HX  83
MATTOON        SUNNY     81  70  69 CALM      29.96R HX  84
PARIS*         SUNNY     83  70  64 SE6       29.97S HX  87
$$

ILZ079-100>102-191800-
SOUTHWEST ILLINOIS

CITY           SKY/WX    TMP DP  RH WIND       PRES   REMARKS
ALTON          MOSUNNY   82  72  69 VRB5      29.97R HX  87
BELLEVILLE     SUNNY     84  70  62 SW6       29.97S HX  89
CAHOKIA*       SUNNY     87  68  52 CALM      29.96S HX  90
SPARTA*        SUNNY     83  69  63 CALM      29.98S HX  86
$$

ILZ064>066-069>071-074>076-080>082-084>086-088>090-092>094-191800-
SOUTH-CENTRAL ILLINOIS

CITY           SKY/WX    TMP DP  RH WIND       PRES   REMARKS
CARBONDALE     SUNNY     84  71  65 CALM      29.98R HX  89
CAIRO*         SUNNY     85  76  73 SW5       29.96F HX  94
EFFINGHAM*     SUNNY     84  73  68 SW7       29.97S HX  90
MARION         SUNNY     84  72  65 CALM      29.98S HX  89
MT. VERNON       N/A     84  72  67 S3        29.96F HX  89
CENTRALIA*     SUNNY     84  73  69 SW3       29.95F HX  90
SALEM*         SUNNY     85  70  62 CALM      29.96F HX  89
METROPOLIS*    MOSUNNY   87  72  61 CALM      29.97S HX  93
$$

ILZ067-068-072-073-078-083-087-091-191800-
SOUTHEAST ILLINOIS

CITY           SKY/WX    TMP DP  RH WIND       PRES   REMARKS
LAWRENCEVILLE  MOSUNNY   84  70  62 SW9       29.95F HX  88
FLORA*         SUNNY     83  72  69 SW6       29.96F HX  89
FAIRFIELD*     SUNNY     82  68  61 CALM      29.95F HX  85
HARRISBURG*    SUNNY     83  70  64 CALM      29.97F HX  87
ROBINSON*      SUNNY     84  70  63 CALM      29.96S HX  88
CARMI*         SUNNY     81  72  75 CALM      29.97S HX  85
$$

ABBREVIATIONS USED IN REMARKS
   TC - TEMPERATURE IN CELSIUS
  WCI - WIND CHILL INDEX
   HX - HEAT INDEX
  VSB - VISIBILITY
$$




USA.gov is the U.S. government's official web portal to all federal, state and local government web resources and services.